Погода в Сан-Поль-де-Мар

Испания     41°36′02″N   2°37′06″E
темп.,
°C
ветер,
м/с
пор.,
м/с
влажн.,
%
обл.,
%
осадки,
мм/ч
давл.,
гПа
погр.,
м
21 апреля, ср
ср2123:00+13св3381100 0.0 101567
02:00+13св3380100 0.0 101485
05:00+13всв4584100 0.2 1013202
08:00+12вюв3492100 5.4 1013272
11:00+12в5693100 6.4 1015432
14:00+12в4586100 7.1 1015552
17:00+13всв678453 0.1 1014617
20:00+12всв678693 0.3 1015572
22 апреля, чт
чт2223:00+12св5788100 0.3 1016426
02:00+12св4586100 0.3 1016348
05:00+11св4685100 0.0 1015323
08:00+11св5785100 0.0 1016386
11:00+13св677996 0.0 1017665
14:00+13всв6776100 0.0 1017592
17:00+13всв4580100 0.0 1016408
20:00+13всв5683100 0.0 1017404
23 апреля, пт
пт2323:00+13св458292 0.0 1018262
02:00+11ссв44815 0.0 1018143
05:00+11с33760 0.0 1018121
08:00+12ссв34690 0.0 1019145
11:00+15всв46600 0.0 1020439
14:00+15в56690 0.0 1020482
17:00+15вюв45720 0.0 1019377
20:00+14всв22800 0.0 1020131
24 апреля, сб
сб2423:00+13ссв12800 0.0 102150
02:00+12с11781 0.0 102144
05:00+12ссз22693 0.0 102066
08:00+12св2363100 0.0 1020100
11:00+15в3563100 0.0 1021312
14:00+15вюв336883 0.0 1021299
17:00+15юв236899 0.0 1020238
20:00+14юв1172100 0.0 102028
25 апреля, вс
вс2523:00+14ссз117389 0.0 102015
02:00+13ссв2268100 0.0 101936
05:00+13св336766 0.0 101771
08:00+13ссв446894 0.0 1017109
11:00+15всв4563100 0.0 1017295
14:00+16в687068 0.0 1016373
17:00+16всв57695 0.0 1016307
20:00+15всв687926 0.0 1015215